When you browse on this site, cookies collect data to enhance your experience and personalize the content and advertising you see.
Visit our Privacy Policy to learn more. By continuing to use the site, you agree to this use of cookies and data.
  • In Latvia
  • List of Countries
  • For 7 days
  • Water Temperature
  • Satellite Maps
  • Weather Map
  • Weather Widgets
  • user-avatar
    Login

    Hourly Weather Lezhe

    Today, 21 January, Monday

    Time Temperature Precipitation Wind Pressure Humidity
    00:00 +4°C° 0 mm 2 mps 736 mmHg 81%
    01:00 +4°C° 0 mm 2 mps 736 mmHg 79%
    02:00 +4°C° 0 mm 2 mps 736 mmHg 78%
    03:00 +4°C° 0 mm 2 mps 736 mmHg 77%
    04:00 +4°C° 0 mm 2 mps 736 mmHg 76%
    05:00 +4°C° 0 mm 2 mps 736 mmHg 76%
    06:00 +4°C° 0 mm 2 mps 736 mmHg 76%
    07:00 +4°C° 0 mm 2 mps 736 mmHg 75%
    08:00 +5°C° 0 mm 2 mps 736 mmHg 72%
    09:00 +7°C° 0 mm 2 mps 736 mmHg 69%
    10:00 +8°C° 0 mm 2 mps 737 mmHg 67%
    11:00 +9°C° 0 mm 2 mps 736 mmHg 65%
    12:00 +10°C° 0 mm 2 mps 736 mmHg 63%
    13:00 +12°C° 0 mm 2 mps 736 mmHg 61%
    14:00 +10°C° 0 mm 2 mps 736 mmHg 65%
    15:00 +9°C° 0 mm 2 mps 736 mmHg 70%
    16:00 +8°C° 0 mm 2 mps 736 mmHg 75%
    17:00 +7°C° 0 mm 2 mps 736 mmHg 77%
    18:00 +6°C° 0 mm 2 mps 736 mmHg 78%
    19:00 +5°C° 0 mm 3 mps 736 mmHg 80%
    20:00 +4°C° 0 mm 3 mps 736 mmHg 79%
    21:00 +4°C° 0 mm 3 mps 736 mmHg 78%
    22:00 +4°C° 0 mm 3 mps 736 mmHg 78%
    23:00 +4°C° 0 mm 3 mps 736 mmHg 77%

    Tomorrow, 22 January, Tuesday

    Time Temperature Precipitation Wind Pressure Humidity
    00:00 +4°C° 0 mm 3 mps 736 mmHg 77%
    01:00 +4°C° 0 mm 3 mps 735 mmHg 77%
    02:00 +4°C° 0.1 mm 3 mps 735 mmHg 77%
    03:00 +4°C° 0.1 mm 3 mps 734 mmHg 77%
    04:00 +4°C° 0.1 mm 3 mps 734 mmHg 78%
    05:00 +4°C° 0.5 mm 3 mps 733 mmHg 79%
    06:00 +4°C° 0.5 mm 3 mps 733 mmHg 80%
    07:00 +4°C° 0.5 mm 3 mps 733 mmHg 81%
    08:00 +5°C° 0.3 mm 3 mps 733 mmHg 81%
    09:00 +5°C° 0.3 mm 3 mps 732 mmHg 80%
    10:00 +5°C° 0.3 mm 3 mps 732 mmHg 80%
    11:00 +5°C° 1.6 mm 3 mps 731 mmHg 83%
    12:00 +6°C° 1.6 mm 2 mps 730 mmHg 86%
    13:00 +6°C° 1.6 mm 2 mps 730 mmHg 88%
    14:00 +6°C° 0.9 mm 2 mps 729 mmHg 87%
    15:00 +6°C° 0.9 mm 2 mps 729 mmHg 86%
    16:00 +7°C° 0.9 mm 3 mps 728 mmHg 86%
    17:00 +7°C° 0.5 mm 3 mps 728 mmHg 85%
    18:00 +6°C° 0.5 mm 2 mps 728 mmHg 85%
    19:00 +6°C° 0.5 mm 2 mps 727 mmHg 85%
    20:00 +5°C° 0.5 mm 3 mps 727 mmHg 85%
    21:00 +7°C° 0.5 mm 3 mps 727 mmHg 85%
    22:00 +7°C° 0.5 mm 3 mps 727 mmHg 85%
    23:00 +6°C° 0.7 mm 4 mps 726 mmHg 87%

    Day after tomorrow, 23 January, Wednesday

    Time Temperature Precipitation Wind Pressure Humidity
    00:00 +6°C° 0.7 mm 4 mps 726 mmHg 89%
    01:00 +6°C° 0.7 mm 5 mps 726 mmHg 90%
    02:00 +6°C° 1.4 mm 4 mps 726 mmHg 90%
    03:00 +6°C° 1.4 mm 4 mps 726 mmHg 89%
    04:00 +6°C° 1.4 mm 4 mps 726 mmHg 89%
    05:00 +5°C° 1.2 mm 3 mps 727 mmHg 89%
    06:00 +5°C° 1.2 mm 3 mps 727 mmHg 89%
    07:00 +4°C° 1.2 mm 3 mps 727 mmHg 89%
    08:00 +5°C° 1.1 mm 4 mps 727 mmHg 86%
    09:00 +6°C° 1.1 mm 4 mps 727 mmHg 83%
    10:00 +6°C° 1.1 mm 5 mps 727 mmHg 80%
    11:00 +7°C° 0.6 mm 4 mps 727 mmHg 78%
    12:00 +7°C° 0.6 mm 4 mps 727 mmHg 76%
    13:00 +8°C° 0.6 mm 4 mps 727 mmHg 74%
    14:00 +8°C° 0.2 mm 3 mps 727 mmHg 76%
    15:00 +8°C° 0.2 mm 2 mps 727 mmHg 78%
    16:00 +8°C° 0.2 mm 2 mps 727 mmHg 79%
    17:00 +7°C° 0 mm 2 mps 727 mmHg 80%
    18:00 +6°C° 0 mm 2 mps 727 mmHg 80%
    19:00 +4°C° 0 mm 3 mps 727 mmHg 80%
    20:00 +4°C° 0 mm 3 mps 726 mmHg 78%
    21:00 +4°C° 0 mm 3 mps 726 mmHg 77%
    22:00 +4°C° 0 mm 3 mps 726 mmHg 76%
    23:00 +4°C° 0 mm 3 mps 726 mmHg 75%

    24 January, Thursday

    Time Temperature Precipitation Wind Pressure Humidity
    00:00 +4°C° 0 mm 3 mps 725 mmHg 74%
    01:00 +4°C° 0 mm 3 mps 724 mmHg 73%
    02:00 +4°C° 0.2 mm 3 mps 724 mmHg 72%
    03:00 +4°C° 0.2 mm 4 mps 723 mmHg 72%
    04:00 +4°C° 0.2 mm 4 mps 723 mmHg 72%
    05:00 +4°C° 0 mm 4 mps 722 mmHg 73%
    06:00 +3°C° 0 mm 5 mps 722 mmHg 74%
    07:00 +3°C° 0 mm 5 mps 722 mmHg 75%
    08:00 +5°C° 0 mm 5 mps 722 mmHg 73%
    09:00 +5°C° 0 mm 6 mps 722 mmHg 71%
    10:00 +6°C° 0 mm 7 mps 722 mmHg 69%
    11:00 +6°C° 0 mm 7 mps 721 mmHg 68%
    12:00 +8°C° 0 mm 6 mps 721 mmHg 68%
    13:00 +8°C° 0 mm 6 mps 721 mmHg 67%
    14:00 +7°C° 0.2 mm 6 mps 721 mmHg 70%
    15:00 +7°C° 0.2 mm 5 mps 721 mmHg 72%
    16:00 +6°C° 0.2 mm 5 mps 722 mmHg 75%
    17:00 +6°C° 0.7 mm 4 mps 722 mmHg 77%
    18:00 +5°C° 0.7 mm 4 mps 723 mmHg 79%
    19:00 +5°C° 0.7 mm 3 mps 723 mmHg 81%
    20:00 +5°C° 0.4 mm 3 mps 723 mmHg 80%
    21:00 +5°C° 0.4 mm 4 mps 724 mmHg 80%
    22:00 +5°C° 0.4 mm 4 mps 724 mmHg 79%
    23:00 +5°C° 0 mm 4 mps 724 mmHg 78%

    25 January, Friday

    Time Temperature Precipitation Wind Pressure Humidity
    00:00 +3°C° 0 mm 5 mps 723 mmHg 78%
    01:00 +3°C° 0 mm 5 mps 723 mmHg 77%
    02:00 +4°C° 0.1 mm 4 mps 724 mmHg 77%
    03:00 +4°C° 0.1 mm 4 mps 724 mmHg 78%
    04:00 +4°C° 0.1 mm 3 mps 724 mmHg 79%
    05:00 +4°C° 1.4 mm 3 mps 725 mmHg 81%
    06:00 +3°C° 1.4 mm 3 mps 725 mmHg 83%
    07:00 +3°C° 1.4 mm 3 mps 726 mmHg 85%
    08:00 +4°C° 0.5 mm 3 mps 726 mmHg 84%
    09:00 +5°C° 0.5 mm 2 mps 726 mmHg 83%
    10:00 +6°C° 0.5 mm 2 mps 726 mmHg 82%
    11:00 +6°C° 0.7 mm 2 mps 726 mmHg 82%
    12:00 +6°C° 0.7 mm 2 mps 726 mmHg 83%
    13:00 +5°C° 0.7 mm 3 mps 726 mmHg 83%
    14:00 +5°C° 0.2 mm 3 mps 727 mmHg 82%
    15:00 +5°C° 0.2 mm 3 mps 727 mmHg 80%
    16:00 +5°C° 0.2 mm 3 mps 727 mmHg 78%
    17:00 +4°C° 0 mm 3 mps 727 mmHg 78%
    18:00 +4°C° 0 mm 3 mps 727 mmHg 77%
    19:00 +3°C° 0 mm 4 mps 728 mmHg 77%
    20:00 +3°C° 0 mm 4 mps 728 mmHg 76%
    21:00 +3°C° 0 mm 4 mps 729 mmHg 76%
    22:00 +1°C° 0 mm 4 mps 729 mmHg 76%
    23:00 +1°C° 0 mm 4 mps 729 mmHg 76%

    26 January, Saturday

    Time Temperature Precipitation Wind Pressure Humidity
    00:00 +1°C° 0 mm 4 mps 729 mmHg 75%
    01:00 +1°C° 0 mm 4 mps 729 mmHg 75%
    02:00 +1°C° 0 mm 4 mps 729 mmHg 75%
    03:00 0°C° 0 mm 4 mps 729 mmHg 75%
    04:00 0°C° 0 mm 4 mps 729 mmHg 75%
    05:00 0°C° 0 mm 4 mps 730 mmHg 75%
    06:00 0°C° 0 mm 4 mps 730 mmHg 74%
    07:00 0°C° 0 mm 4 mps 730 mmHg 74%
    08:00 +1°C° 0 mm 4 mps 730 mmHg 72%
    09:00 +3°C° 0 mm 4 mps 731 mmHg 69%
    10:00 +5°C° 0 mm 5 mps 731 mmHg 66%
    11:00 +5°C° 0 mm 5 mps 731 mmHg 65%
    12:00 +6°C° 0 mm 5 mps 731 mmHg 64%
    13:00 +6°C° 0 mm 4 mps 731 mmHg 63%
    14:00 +6°C° 0 mm 4 mps 731 mmHg 65%
    15:00 +5°C° 0 mm 4 mps 731 mmHg 66%
    16:00 +5°C° 0 mm 3 mps 731 mmHg 68%
    17:00 +4°C° 0 mm 3 mps 731 mmHg 70%
    18:00 +3°C° 0 mm 3 mps 731 mmHg 73%
    19:00 +2°C° 0 mm 3 mps 732 mmHg 75%
    20:00 +1°C° 0 mm 3 mps 732 mmHg 75%
    21:00 +1°C° 0 mm 3 mps 732 mmHg 75%
    22:00 +1°C° 0 mm 3 mps 732 mmHg 76%
    23:00 +1°C° 0 mm 3 mps 732 mmHg 76%
    Show more